SAS42C ENGM-ENBO

Flight info

Callsign SAS42C
Flight time 1h 11m
Altitude 39000
Route RIBBE DCT GIGNI DCT SOMUB DCT ODNOS
Aircraft A20N/M-SDE2E3FGHIRWXY/LB1

Departure

Time 2026-05-04 18:47
Airport Oslo-Gardermoen International Airport (ENGM)

Arrival

Time 2026-05-04 19:59
Airport Bodø Airport (ENBO)
Time Latitude Longitude Altitude Speed Heading
2026-05-04 18:31 60.19550 11.09500 685 ft 0 kts 196°
2026-05-04 18:38 60.19551 11.09501 680 ft 2 kts 196°
2026-05-04 18:38 60.19575 11.09515 685 ft 4 kts 196°
2026-05-04 18:38 60.19601 11.09530 677 ft 4 kts 196°
2026-05-04 18:38 60.19627 11.09545 676 ft 4 kts 196°
2026-05-04 18:39 60.19636 11.09550 676 ft 0 kts 196°
2026-05-04 18:41 60.19636 11.09549 676 ft 0 kts 202°
2026-05-04 18:41 60.19635 11.09539 676 ft 1 kts 248°
2026-05-04 18:42 60.19650 11.09501 677 ft 8 kts 309°
2026-05-04 18:42 60.19687 11.09361 679 ft 14 kts 288°
2026-05-04 18:42 60.19717 11.09145 681 ft 18 kts 285°
2026-05-04 18:42 60.19755 11.08875 676 ft 23 kts 285°
2026-05-04 18:43 60.19822 11.08711 678 ft 14 kts 356°
2026-05-04 18:43 60.19930 11.08765 679 ft 19 kts 13°
2026-05-04 18:43 60.20072 11.08844 680 ft 24 kts 15°
2026-05-04 18:43 60.20248 11.08944 681 ft 29 kts 16°
2026-05-04 18:44 60.20453 11.09055 682 ft 33 kts 14°
2026-05-04 18:44 60.20608 11.09149 677 ft 35 kts 16°
2026-05-04 18:44 60.20939 11.09339 682 ft 39 kts 15°
2026-05-04 18:44 60.21194 11.09488 680 ft 37 kts 16°
2026-05-04 18:45 60.21406 11.09614 687 ft 24 kts 16°
2026-05-04 18:45 60.21534 11.09539 681 ft 23 kts 300°
2026-05-04 18:45 60.21574 11.09239 680 ft 21 kts 262°
2026-05-04 18:45 60.21472 11.09094 683 ft 4 kts 189°
2026-05-04 18:46 60.21470 11.09093 683 ft 0 kts 192°
2026-05-04 18:46 60.21340 11.09015 677 ft 63 kts 199°
2026-05-04 18:47 60.20644 11.08598 679 ft 140 kts 195°
2026-05-04 18:47 60.19652 11.08275 1427 ft 143 kts 195°
2026-05-04 18:47 60.18659 11.08029 2202 ft 148 kts 195°
2026-05-04 18:47 60.17611 11.07707 3010 ft 158 kts 201°
2026-05-04 18:48 60.16568 11.06878 3663 ft 167 kts 226°
2026-05-04 18:48 60.15952 11.04849 4341 ft 180 kts 256°
2026-05-04 18:48 60.15582 11.02283 5028 ft 205 kts 253°
2026-05-04 18:48 60.15054 10.99428 5910 ft 231 kts 250°
2026-05-04 18:49 60.14501 10.96263 6615 ft 245 kts 259°
2026-05-04 18:49 60.14370 10.92857 6891 ft 245 kts 274°
2026-05-04 18:49 60.14658 10.89465 6999 ft 247 kts 280°
2026-05-04 18:49 60.14988 10.86084 7004 ft 247 kts 281°
2026-05-04 18:50 60.15648 10.82894 7006 ft 251 kts 301°
2026-05-04 18:50 60.16923 10.80473 7005 ft 259 kts 324°
2026-05-04 18:50 60.18659 10.79315 7022 ft 271 kts 348°
2026-05-04 18:50 60.20558 10.78949 7462 ft 274 kts 349°
2026-05-04 18:51 60.22463 10.79080 8656 ft 285 kts
2026-05-04 18:51 60.24278 10.80885 10119 ft 301 kts 32°
2026-05-04 18:51 60.25914 10.83804 10919 ft 328 kts 35°
2026-05-04 18:51 60.27914 10.86168 11541 ft 340 kts 12°
2026-05-04 18:52 60.30241 10.87186 12479 ft 343 kts 360°
2026-05-04 18:52 60.32635 10.87705 13638 ft 351 kts 358°
2026-05-04 18:52 60.35092 10.88241 14666 ft 358 kts 359°
2026-05-04 18:52 60.37590 10.88915 15687 ft 367 kts 359°
2026-05-04 18:53 60.40145 10.89717 16712 ft 374 kts 359°
2026-05-04 18:53 60.42739 10.90598 17704 ft 382 kts 359°
2026-05-04 18:53 60.45389 10.91528 18594 ft 388 kts 358°
2026-05-04 18:53 60.48061 10.92475 19520 ft 392 kts 358°
2026-05-04 18:54 60.50767 10.93434 20397 ft 397 kts 358°
2026-05-04 18:54 60.53505 10.94403 21308 ft 402 kts 358°
2026-05-04 18:54 60.56278 10.95381 22114 ft 408 kts 358°
2026-05-04 18:54 60.59095 10.96376 23009 ft 412 kts 358°
2026-05-04 18:55 60.61942 10.97387 23849 ft 418 kts 357°
2026-05-04 18:55 60.67704 10.99434 25271 ft 427 kts 357°
2026-05-04 18:55 60.70647 11.00479 25944 ft 431 kts 357°
2026-05-04 18:56 60.73623 11.01534 26550 ft 436 kts 358°
2026-05-04 18:56 60.76624 11.02601 27210 ft 439 kts 358°
2026-05-04 18:56 60.79650 11.03683 27858 ft 443 kts 358°
2026-05-04 18:56 60.82705 11.04775 28444 ft 448 kts 358°
2026-05-04 18:57 60.85780 11.05879 29050 ft 451 kts 358°
2026-05-04 18:57 60.88888 11.06995 29684 ft 456 kts 358°
2026-05-04 18:57 60.92034 11.08128 30069 ft 462 kts 358°
2026-05-04 18:57 60.95217 11.09276 30533 ft 466 kts 358°
2026-05-04 18:58 60.98392 11.10424 30998 ft 470 kts 358°
2026-05-04 18:58 61.01617 11.11595 31535 ft 471 kts 359°
2026-05-04 18:58 61.04848 11.12771 32118 ft 472 kts 359°
2026-05-04 18:58 61.08091 11.13952 32690 ft 473 kts 359°
2026-05-04 18:59 61.11332 11.15134 33261 ft 473 kts 360°
2026-05-04 18:59 61.14584 11.16327 33795 ft 474 kts
2026-05-04 18:59 61.17833 11.17514 34267 ft 474 kts
2026-05-04 18:59 61.21086 11.18704 34774 ft 473 kts
2026-05-04 19:00 61.24320 11.19892 35273 ft 472 kts
2026-05-04 19:00 61.27548 11.21081 35741 ft 471 kts
2026-05-04 19:00 61.30775 11.22272 36170 ft 470 kts
2026-05-04 19:00 61.33992 11.23464 36598 ft 469 kts
2026-05-04 19:01 61.37169 11.24643 37045 ft 469 kts
2026-05-04 19:01 61.40382 11.25839 37517 ft 468 kts
2026-05-04 19:01 61.43591 11.27035 37976 ft 467 kts
2026-05-04 19:01 61.46796 11.28231 38390 ft 468 kts
2026-05-04 19:02 61.50022 11.29430 38507 ft 474 kts
2026-05-04 19:02 61.53280 11.30649 38651 ft 473 kts
2026-05-04 19:02 61.59740 11.33092 38697 ft 471 kts
2026-05-04 19:03 61.66192 11.35533 38697 ft 471 kts
2026-05-04 19:03 61.72604 11.37970 38703 ft 471 kts
2026-05-04 19:04 61.79053 11.40431 38704 ft 469 kts
2026-05-04 19:04 61.85456 11.42888 38697 ft 467 kts
2026-05-04 19:05 61.91864 11.45357 38691 ft 467 kts
2026-05-04 19:05 61.98250 11.47827 38692 ft 466 kts
2026-05-04 19:06 62.04669 11.49533 38711 ft 465 kts 360°
2026-05-04 19:06 62.11100 11.51010 38716 ft 469 kts 360°
2026-05-04 19:07 62.17576 11.52514 38716 ft 467 kts 360°
2026-05-04 19:07 62.24032 11.53999 38717 ft 468 kts 360°
2026-05-04 19:08 62.30511 11.55494 38721 ft 467 kts 360°
2026-05-04 19:08 62.36882 11.56973 38725 ft 468 kts 360°
2026-05-04 19:09 62.43355 11.58483 38721 ft 468 kts 360°
2026-05-04 19:09 62.49778 11.59985 38721 ft 467 kts 360°
2026-05-04 19:10 62.56244 11.61502 38721 ft 467 kts 360°
2026-05-04 19:10 62.62667 11.63015 38667 ft 467 kts 360°
2026-05-04 19:11 62.69135 11.64539 38678 ft 468 kts
2026-05-04 19:11 62.75607 11.66075 38691 ft 468 kts
2026-05-04 19:12 62.85328 11.68397 38719 ft 468 kts
2026-05-04 19:13 62.91806 11.69954 38737 ft 468 kts
2026-05-04 19:13 62.98290 11.71515 38741 ft 470 kts
2026-05-04 19:14 63.04788 11.73090 38733 ft 470 kts
2026-05-04 19:14 63.11268 11.74670 38735 ft 470 kts
2026-05-04 19:15 63.16690 11.75996 38728 ft 471 kts
2026-05-04 19:15 63.24307 11.77868 38728 ft 471 kts
2026-05-04 19:16 63.29727 11.79203 38719 ft 471 kts
2026-05-04 19:16 63.36226 11.81400 38715 ft 476 kts
2026-05-04 19:17 63.42643 11.85236 38710 ft 477 kts 10°
2026-05-04 19:17 63.49027 11.88986 38715 ft 477 kts 10°
2026-05-04 19:18 63.55439 11.92816 38726 ft 477 kts 10°
2026-05-04 19:18 63.61850 11.96696 38704 ft 476 kts 11°
2026-05-04 19:19 63.68244 12.00596 38699 ft 476 kts 11°
2026-05-04 19:19 63.74603 12.04491 38690 ft 475 kts 11°
2026-05-04 19:20 63.80979 12.08413 38688 ft 475 kts 11°
2026-05-04 19:20 63.87353 12.12350 38688 ft 475 kts 11°
2026-05-04 19:21 63.93733 12.16312 38684 ft 474 kts 11°
2026-05-04 19:21 64.00088 12.20279 38820 ft 473 kts 11°
2026-05-04 19:22 64.06409 12.24242 38828 ft 473 kts 11°
2026-05-04 19:22 64.12760 12.28242 38812 ft 473 kts 11°
2026-05-04 19:23 64.19107 12.32257 38782 ft 473 kts 11°
2026-05-04 19:23 64.25441 12.36285 38736 ft 473 kts 11°
2026-05-04 19:24 64.31793 12.40343 38685 ft 473 kts 11°
2026-05-04 19:24 64.38096 12.44389 38654 ft 473 kts 11°
2026-05-04 19:25 64.44441 12.48480 38665 ft 473 kts 11°
2026-05-04 19:25 64.50791 12.52593 38652 ft 473 kts 12°
2026-05-04 19:26 64.57139 12.56730 38653 ft 474 kts 12°
2026-05-04 19:26 64.63483 12.60881 38649 ft 474 kts 12°
2026-05-04 19:27 64.69803 12.65038 38644 ft 474 kts 12°
2026-05-04 19:27 64.76152 12.69233 38669 ft 474 kts 12°
2026-05-04 19:28 64.82504 12.73449 38642 ft 474 kts 12°
2026-05-04 19:28 64.88851 12.77685 38640 ft 474 kts 12°
2026-05-04 19:29 64.95188 12.81936 38633 ft 473 kts 12°
2026-05-04 19:29 65.01533 12.86212 38632 ft 473 kts 12°
2026-05-04 19:30 65.07828 12.90474 38637 ft 474 kts 13°
2026-05-04 19:30 65.14166 12.94787 38633 ft 474 kts 13°
2026-05-04 19:31 65.20504 12.99123 38340 ft 473 kts 13°
2026-05-04 19:31 65.23668 13.01296 38090 ft 473 kts 13°
2026-05-04 19:31 65.26829 13.03471 37827 ft 473 kts 13°
2026-05-04 19:31 65.29983 13.05647 37562 ft 473 kts 13°
2026-05-04 19:32 65.33000 13.07734 37319 ft 473 kts 13°
2026-05-04 19:32 65.36169 13.09932 37068 ft 473 kts 13°
2026-05-04 19:32 65.39328 13.12126 36809 ft 473 kts 13°
2026-05-04 19:32 65.42498 13.14334 36437 ft 473 kts 13°
2026-05-04 19:33 65.45656 13.16541 36068 ft 473 kts 13°
2026-05-04 19:33 65.48812 13.18753 35712 ft 473 kts 13°
2026-05-04 19:33 65.51977 13.20975 35354 ft 473 kts 13°
2026-05-04 19:33 65.55141 13.23201 35007 ft 474 kts 13°
2026-05-04 19:34 65.58305 13.25434 34665 ft 473 kts 13°
2026-05-04 19:34 65.61461 13.27666 34327 ft 473 kts 13°
2026-05-04 19:34 65.64624 13.29909 33994 ft 474 kts 13°
2026-05-04 19:34 65.67749 13.32131 33683 ft 474 kts 13°
2026-05-04 19:35 65.70920 13.34389 33300 ft 473 kts 14°
2026-05-04 19:35 65.74075 13.36645 32906 ft 472 kts 14°
2026-05-04 19:35 65.77222 13.38901 32479 ft 472 kts 14°
2026-05-04 19:35 65.80372 13.41163 32047 ft 471 kts 14°
2026-05-04 19:36 65.83518 13.43429 31627 ft 470 kts 14°
2026-05-04 19:36 65.86659 13.45698 31202 ft 470 kts 14°
2026-05-04 19:36 65.89790 13.47963 30791 ft 470 kts 14°
2026-05-04 19:36 65.92922 13.50236 30382 ft 469 kts 14°
2026-05-04 19:37 65.96041 13.52506 29979 ft 465 kts 14°
2026-05-04 19:37 65.99132 13.54760 29583 ft 460 kts 14°
2026-05-04 19:37 66.02179 13.56988 29080 ft 454 kts 15°
2026-05-04 19:37 66.05190 13.59196 28587 ft 450 kts 15°
2026-05-04 19:38 66.08171 13.61389 28105 ft 445 kts 15°
2026-05-04 19:38 66.11125 13.63566 27627 ft 440 kts 15°
2026-05-04 19:38 66.14044 13.65718 27164 ft 436 kts 15°
2026-05-04 19:38 66.16904 13.67830 26710 ft 432 kts 15°
2026-05-04 19:39 66.19766 13.69949 26257 ft 428 kts 15°
2026-05-04 19:39 66.22603 13.72055 25716 ft 424 kts 15°
2026-05-04 19:39 66.25417 13.74148 25139 ft 418 kts 15°
2026-05-04 19:39 66.28159 13.76358 24599 ft 413 kts 20°
2026-05-04 19:40 66.30755 13.79349 24064 ft 410 kts 27°
2026-05-04 19:40 66.33213 13.82913 23533 ft 406 kts 29°
2026-05-04 19:40 66.35653 13.86404 22913 ft 401 kts 28°
2026-05-04 19:40 66.38063 13.89833 22204 ft 396 kts 28°
2026-05-04 19:41 66.40420 13.93201 21502 ft 383 kts 28°
2026-05-04 19:41 66.42679 13.96446 20837 ft 368 kts 29°
2026-05-04 19:41 66.44896 13.99413 20180 ft 355 kts 25°
2026-05-04 19:41 66.47086 14.02031 19537 ft 344 kts 24°
2026-05-04 19:42 66.49221 14.04561 18907 ft 335 kts 24°
2026-05-04 19:42 66.51290 14.07076 18298 ft 327 kts 24°
2026-05-04 19:42 66.53312 14.09595 17658 ft 321 kts 25°
2026-05-04 19:42 66.55283 14.12091 16972 ft 320 kts 25°
2026-05-04 19:43 66.57251 14.14605 16322 ft 314 kts 25°
2026-05-04 19:43 66.59184 14.17089 15661 ft 312 kts 24°
2026-05-04 19:43 66.61141 14.19606 15013 ft 315 kts 24°
2026-05-04 19:43 66.63077 14.22103 14382 ft 309 kts 24°
2026-05-04 19:44 66.64974 14.24555 13763 ft 303 kts 24°
2026-05-04 19:44 66.66845 14.26974 13121 ft 301 kts 24°
2026-05-04 19:44 66.68672 14.29337 12451 ft 298 kts 24°
2026-05-04 19:44 66.70506 14.31711 11813 ft 293 kts 24°
2026-05-04 19:45 66.72286 14.34018 11170 ft 289 kts 24°
2026-05-04 19:45 66.74063 14.36331 10523 ft 285 kts 24°
2026-05-04 19:45 66.75804 14.38595 9896 ft 278 kts 24°
2026-05-04 19:45 66.77498 14.40803 9267 ft 270 kts 24°
2026-05-04 19:46 66.79153 14.42971 8611 ft 266 kts 24°
2026-05-04 19:46 66.80787 14.45112 7960 ft 263 kts 24°
2026-05-04 19:46 66.82406 14.47233 7345 ft 259 kts 24°
2026-05-04 19:46 66.83966 14.49285 7076 ft 243 kts 24°
2026-05-04 19:47 66.85413 14.51193 7018 ft 233 kts 23°
2026-05-04 19:47 66.86865 14.53098 7013 ft 232 kts 23°
2026-05-04 19:47 66.88301 14.54984 7023 ft 236 kts 24°
2026-05-04 19:47 66.89764 14.56906 7010 ft 235 kts 24°
2026-05-04 19:48 66.91216 14.58819 7019 ft 237 kts 24°
2026-05-04 19:48 66.92677 14.60748 7017 ft 235 kts 24°
2026-05-04 19:48 66.94131 14.62677 7015 ft 236 kts 24°
2026-05-04 19:48 66.95583 14.64603 7013 ft 235 kts 24°
2026-05-04 19:49 66.97019 14.66509 7009 ft 235 kts 24°
2026-05-04 19:49 66.98472 14.68438 7010 ft 235 kts 24°
2026-05-04 19:49 66.99926 14.70372 7004 ft 235 kts 24°
2026-05-04 19:49 67.01372 14.72300 7006 ft 235 kts 24°
2026-05-04 19:50 67.02827 14.74239 7006 ft 235 kts 24°
2026-05-04 19:50 67.04267 14.76164 7006 ft 229 kts 24°
2026-05-04 19:50 67.05637 14.78008 7006 ft 215 kts 24°
2026-05-04 19:50 67.06954 14.79778 7006 ft 215 kts 24°
2026-05-04 19:51 67.08274 14.81549 7003 ft 213 kts 23°
2026-05-04 19:51 67.09594 14.83320 6831 ft 215 kts 23°
2026-05-04 19:51 67.10926 14.85112 6526 ft 217 kts 23°
2026-05-04 19:51 67.12253 14.86902 6234 ft 218 kts 23°
2026-05-04 19:52 67.13604 14.88721 5913 ft 220 kts 23°
2026-05-04 19:52 67.14957 14.90544 5585 ft 220 kts 24°
2026-05-04 19:52 67.16332 14.92404 5256 ft 220 kts 24°
2026-05-04 19:52 67.17691 14.94101 4949 ft 219 kts 15°
2026-05-04 19:53 67.19200 14.94739 4617 ft 217 kts 355°
2026-05-04 19:53 67.20687 14.94539 4317 ft 217 kts 354°
2026-05-04 19:53 67.22191 14.94345 3945 ft 215 kts 354°
2026-05-04 19:53 67.23690 14.94173 3584 ft 217 kts 355°
2026-05-04 19:54 67.25209 14.94012 3209 ft 220 kts 355°
2026-05-04 19:54 67.26672 14.93304 3019 ft 210 kts 331°
2026-05-04 19:54 67.27667 14.90816 3001 ft 194 kts 296°
2026-05-04 19:54 67.27894 14.87375 3008 ft 199 kts 269°
2026-05-04 19:55 67.27835 14.83827 2895 ft 197 kts 269°
2026-05-04 19:55 67.27775 14.80260 2591 ft 197 kts 269°
2026-05-04 19:55 67.27727 14.76729 2303 ft 198 kts 269°
2026-05-04 19:55 67.27694 14.73166 2117 ft 196 kts 270°
2026-05-04 19:56 67.27600 14.69683 1896 ft 190 kts 265°
2026-05-04 19:56 67.27485 14.66508 1797 ft 168 kts 271°
2026-05-04 19:56 67.27511 14.63373 1801 ft 174 kts 272°
2026-05-04 19:56 67.27564 14.60242 1627 ft 172 kts 277°
2026-05-04 19:57 67.27792 14.57246 1522 ft 167 kts 283°
2026-05-04 19:57 67.27974 14.54232 1170 ft 170 kts 274°
2026-05-04 19:57 67.27913 14.51165 858 ft 171 kts 264°
2026-05-04 19:57 67.27791 14.48264 620 ft 154 kts 263°
2026-05-04 19:58 67.27632 14.45615 473 ft 152 kts 261°
2026-05-04 19:58 67.27448 14.42946 316 ft 150 kts 260°
2026-05-04 19:58 67.27245 14.40331 146 ft 148 kts 257°
2026-05-04 19:58 67.27040 14.37951 51 ft 112 kts 258°
2026-05-04 19:59 67.26949 14.36834 42 ft 24 kts 258°
2026-05-04 19:59 67.26939 14.36554 40 ft 11 kts 299°
2026-05-04 19:59 67.27014 14.36485 42 ft 12 kts
2026-05-04 19:59 67.27089 14.36584 46 ft 4 kts 33°
2026-05-04 20:00 67.27106 14.36614 44 ft 5 kts 34°
2026-05-04 20:00 67.27135 14.36666 46 ft 1 kts 33°
2026-05-04 20:00 67.27146 14.36684 44 ft 1 kts 34°
2026-05-04 20:00 67.27148 14.36687 45 ft 1 kts 33°